Weather History for Manteo, NC

Change the Weather History Date:

Friday, September 6, 2013

  Actual Average Record
Temperature  
Mean Temperature 74 °F -  
Max Temperature 79 °F 79 °F 93 °F (1983)
Min Temperature 70 °F 70 °F 58 °F (1984)
Cooling Degree Days 10    
Growing Degree Days 24 (Base 50)    
Moisture  
Dew Point 64 °F    
Average Humidity 71    
Maximum Humidity 99    
Minimum Humidity 53    
Precipitation  
Precipitation 0.00 in - - ()
Sea Level Pressure  
Sea Level Pressure 30.10 in    
Wind  
Wind Speed 10 mph (ENE)    
Max Wind Speed 21 mph    
Max Gust Speed 28 mph    
Visibility 10 miles    
Events      
Averages and records for this station are not official NWS values.
T = Trace of Precipitation, MM = Missing Value Source: NWS Daily Summary

Daily Weather History Graph

Daily Weather History Graph

Search for Another Location

Airport:

Trip Planner

Search our weather history database for the weather conditions in past years. The results will help you decide how hot, cold, wet, or windy it might be!

Date:

Astronomy

Sep. 06, 2013 Rise Set
Actual Time 6:38 AM EDT 7:22 PM EDT
Civil Twilight 6:12 AM EDT 7:48 PM EDT
Nautical Twilight 5:42 AM EDT 8:19 PM EDT
Astronomical Twilight 5:10 AM EDT 8:50 PM EDT
Moon 7:44 AM EDT (9/6) 7:50 PM EDT (9/6)
Length of Visible Light 13h 36m
Length of Day
12h 44m
New Moon, 1% of the Moon is Illuminated
Sep 6
New Moon
Sep 12
First Quarter
Sep 19
Full
Sep 26
Last Quarter
Oct 4
New

Hourly Weather History & Observations

Time (EDT) Temp. Dew Point Humidity Pressure Visibility Wind Dir Wind Speed Gust Speed Precip Events Conditions
12:15 AM 77.0 °F 72.9 °F 87% 30.04 in 10.0 mi Calm Calm - N/A   Clear
12:35 AM 77.0 °F 73.2 °F 88% 30.04 in 10.0 mi WNW 4.6 mph - N/A   Clear
12:55 AM 76.5 °F 72.9 °F 89% 30.04 in 10.0 mi WNW 3.5 mph - N/A   Clear
1:15 AM 76.1 °F 72.9 °F 90% 30.04 in 10.0 mi WNW 3.5 mph - N/A   Clear
1:35 AM 75.4 °F 72.5 °F 91% 30.04 in 10.0 mi Calm Calm - N/A   Clear
1:55 AM 72.1 °F 70.9 °F 96% 30.04 in 10.0 mi Calm Calm - N/A   Clear
2:15 AM 72.5 °F 71.6 °F 97% 30.04 in 7.0 mi Calm Calm - N/A   Clear
2:35 AM 72.3 °F 71.1 °F 96% 30.03 in 10.0 mi Calm Calm - N/A   Clear
2:55 AM 70.3 °F 69.8 °F 98% 30.03 in 2.5 mi North 3.5 mph - N/A   Clear
3:15 AM 70.9 °F 70.7 °F 99% 30.03 in 7.0 mi NNE 4.6 mph - N/A   Clear
3:35 AM 75.2 °F 74.7 °F 98% 30.04 in 7.0 mi ENE 5.8 mph - N/A   Scattered Clouds
3:55 AM 75.6 °F 75.0 °F 98% 30.04 in 7.0 mi ENE 5.8 mph - N/A   Mostly Cloudy
4:15 AM 76.1 °F 75.2 °F 97% 30.04 in 10.0 mi ENE 6.9 mph - N/A   Overcast
4:35 AM 76.1 °F 74.5 °F 95% 30.04 in 10.0 mi NE 10.4 mph - N/A   Overcast
4:55 AM 75.7 °F 73.9 °F 94% 30.04 in 10.0 mi NE 9.2 mph 16.1 mph N/A   Overcast
5:15 AM 75.2 °F 73.4 °F 94% 30.05 in 10.0 mi NE 9.2 mph - N/A   Mostly Cloudy
5:35 AM 75.2 °F 71.4 °F 88% 30.05 in 10.0 mi NE 10.4 mph - N/A   Scattered Clouds
5:55 AM 75.0 °F 70.7 °F 86% 30.05 in 10.0 mi ENE 13.8 mph 17.3 mph N/A   Scattered Clouds
6:15 AM 74.3 °F 69.8 °F 86% 30.06 in 10.0 mi ENE 17.3 mph 23.0 mph N/A   Scattered Clouds
6:35 AM 74.3 °F 68.9 °F 83% 30.07 in 10.0 mi East 16.1 mph 20.7 mph N/A   Clear
6:55 AM 74.1 °F 69.1 °F 84% 30.07 in 10.0 mi ENE 12.7 mph - N/A   Clear
7:15 AM 74.3 °F 68.2 °F 81% 30.08 in 10.0 mi East 13.8 mph 20.7 mph N/A   Clear
7:35 AM 74.5 °F 68.4 °F 81% 30.09 in 10.0 mi East 13.8 mph 20.7 mph N/A   Scattered Clouds
7:55 AM 74.8 °F 67.3 °F 77% 30.09 in 10.0 mi East 16.1 mph 20.7 mph N/A   Clear
8:15 AM 75.6 °F 67.8 °F 77% 30.10 in 10.0 mi East 13.8 mph 18.4 mph N/A   Scattered Clouds
8:35 AM 75.9 °F 68.2 °F 77% 30.11 in 10.0 mi ENE 15.0 mph 18.4 mph N/A   Scattered Clouds
8:55 AM 76.3 °F 68.2 °F 76% 30.11 in 10.0 mi East 13.8 mph 19.6 mph N/A   Scattered Clouds
9:15 AM 76.8 °F 67.6 °F 73% 30.11 in 10.0 mi East 13.8 mph 20.7 mph N/A   Scattered Clouds
9:35 AM 77.0 °F 67.5 °F 72% 30.12 in 10.0 mi East 12.7 mph - N/A   Scattered Clouds
9:55 AM 77.9 °F 67.8 °F 71% 30.13 in 10.0 mi East 10.4 mph - N/A   Mostly Cloudy
10:15 AM 78.1 °F 67.1 °F 69% 30.13 in 10.0 mi ENE 15.0 mph 19.6 mph N/A   Overcast
10:35 AM 78.3 °F 67.8 °F 70% 30.13 in 10.0 mi ENE 11.5 mph 17.3 mph N/A   Mostly Cloudy
10:55 AM 77.0 °F 68.2 °F 74% 30.13 in 10.0 mi East 15.0 mph 19.6 mph N/A   Mostly Cloudy
11:15 AM 79.0 °F 68.9 °F 71% 30.13 in 10.0 mi ENE 16.1 mph 21.9 mph N/A   Overcast
11:35 AM 78.1 °F 67.6 °F 70% 30.14 in 10.0 mi East 18.4 mph 23.0 mph N/A   Mostly Cloudy
11:55 AM 78.3 °F 66.9 °F 68% 30.14 in 10.0 mi ENE 18.4 mph 25.3 mph N/A   Mostly Cloudy
12:15 PM 77.9 °F 65.3 °F 65% 30.14 in 10.0 mi ENE 20.7 mph - N/A   Mostly Cloudy
12:35 PM 78.4 °F 63.3 °F 60% 30.14 in 10.0 mi East 18.4 mph 23.0 mph N/A   Scattered Clouds
12:55 PM 78.4 °F 64.0 °F 61% 30.14 in 10.0 mi ENE 19.6 mph 24.2 mph N/A   Clear
1:15 PM 78.1 °F 64.0 °F 62% 30.14 in 10.0 mi ENE 17.3 mph 23.0 mph N/A   Scattered Clouds
1:35 PM 78.1 °F 63.5 °F 61% 30.14 in 10.0 mi ENE 19.6 mph 25.3 mph N/A   Clear
1:55 PM 77.7 °F 63.3 °F 61% 30.13 in 10.0 mi ENE 19.6 mph 25.3 mph N/A   Scattered Clouds
2:15 PM 78.1 °F 62.6 °F 59% 30.13 in 10.0 mi ENE 16.1 mph 23.0 mph N/A   Clear
2:35 PM 77.4 °F 62.8 °F 61% 30.12 in 10.0 mi ENE 17.3 mph 24.2 mph N/A   Clear
2:55 PM 77.5 °F 62.8 °F 60% 30.11 in 10.0 mi ENE 19.6 mph 26.5 mph N/A   Clear
3:15 PM 77.4 °F 62.2 °F 59% 30.11 in 10.0 mi ENE 19.6 mph 26.5 mph N/A   Clear
3:35 PM 77.4 °F 61.7 °F 58% 30.11 in 10.0 mi ENE 17.3 mph 25.3 mph N/A   Clear
3:55 PM 77.2 °F 61.3 °F 58% 30.11 in 10.0 mi ENE 19.6 mph 23.0 mph N/A   Scattered Clouds
4:15 PM 77.0 °F 61.7 °F 59% 30.11 in 10.0 mi East 19.6 mph 25.3 mph N/A   Clear
4:35 PM 75.2 °F 61.2 °F 62% 30.11 in 10.0 mi East 17.3 mph - N/A   Mostly Cloudy
4:55 PM 75.4 °F 60.1 °F 59% 30.10 in 10.0 mi ENE 20.7 mph 27.6 mph N/A   Scattered Clouds
5:15 PM 75.2 °F 58.6 °F 56% 30.10 in 10.0 mi ENE 19.6 mph 25.3 mph N/A   Clear
5:35 PM 75.0 °F 58.8 °F 57% 30.11 in 10.0 mi ENE 17.3 mph 23.0 mph N/A   Clear
5:55 PM 73.8 °F 57.7 °F 57% 30.11 in 10.0 mi ENE 17.3 mph 21.9 mph N/A   Scattered Clouds
6:15 PM 73.8 °F 57.4 °F 56% 30.11 in 10.0 mi ENE 19.6 mph 25.3 mph N/A   Overcast
6:35 PM 73.4 °F 56.8 °F 56% 30.11 in 10.0 mi ENE 17.3 mph - N/A   Scattered Clouds
6:55 PM 72.5 °F 57.2 °F 59% 30.11 in 10.0 mi East 12.7 mph 18.4 mph N/A   Clear
7:15 PM 72.0 °F 56.7 °F 58% 30.11 in 10.0 mi East 13.8 mph 19.6 mph N/A   Clear
7:35 PM 72.1 °F 55.8 °F 56% 30.11 in 10.0 mi East 13.8 mph 19.6 mph N/A   Mostly Cloudy
7:55 PM 72.0 °F 54.5 °F 54% 30.11 in 10.0 mi East 13.8 mph 18.4 mph N/A   Mostly Cloudy
8:15 PM 71.6 °F 54.1 °F 54% 30.12 in 10.0 mi East 12.7 mph 18.4 mph N/A   Mostly Cloudy
8:35 PM 71.6 °F 54.5 °F 55% 30.11 in 10.0 mi East 13.8 mph 18.4 mph N/A   Mostly Cloudy
8:55 PM 71.6 °F 53.8 °F 53% 30.11 in 10.0 mi East 16.1 mph - N/A   Scattered Clouds
9:15 PM 71.1 °F 52.9 °F 53% 30.12 in 10.0 mi ENE 15.0 mph 18.4 mph N/A   Scattered Clouds
9:35 PM 70.9 °F 53.6 °F 54% 30.12 in 10.0 mi ENE 13.8 mph - N/A   Scattered Clouds
9:55 PM 71.1 °F 53.4 °F 54% 30.11 in 10.0 mi ENE 11.5 mph 17.3 mph N/A   Clear
10:15 PM 70.7 °F 54.1 °F 56% 30.12 in 10.0 mi ENE 11.5 mph - N/A   Clear
10:35 PM 70.9 °F 53.6 °F 54% 30.12 in 10.0 mi ENE 12.7 mph 17.3 mph N/A   Clear
10:55 PM 70.9 °F 54.5 °F 56% 30.12 in 10.0 mi ENE 12.7 mph 17.3 mph N/A   Clear
11:15 PM 70.7 °F 54.9 °F 57% 30.12 in 10.0 mi ENE 10.4 mph - N/A   Clear
11:35 PM 70.7 °F 55.9 °F 59% 30.11 in 10.0 mi ENE 11.5 mph - N/A   Clear
11:55 PM 70.7 °F 56.5 °F 61% 30.11 in 10.0 mi ENE 11.5 mph - N/A   Clear